| time (UTC) | temp F | wind direction | speed MPH | gust MPH | rain 1hr in | rain 24hr in | rain mn in | humidity % | barometer mb |
| 20260505215554 | 68 | 273 | 0.0 | 0.0 | 0.00 | 0.04 | 0.04 | 70 | 1006.1 |
| 20260505215054 | 68 | 273 | 0.0 | 0.0 | 0.00 | 0.04 | 0.04 | 70 | 1005.8 |
| 20260505214554 | 68 | 269 | 0.0 | 0.0 | 0.00 | 0.04 | 0.04 | 70 | 1006.0 |
| 20260505214054 | 68 | 269 | 0.0 | 2.0 | 0.00 | 0.04 | 0.04 | 70 | 1006.0 |
| 20260505213553 | 68 | 273 | 0.0 | 2.0 | 0.00 | 0.04 | 0.04 | 71 | 1006.0 |
| 20260505213057 | 68 | 183 | 0.0 | 3.0 | 0.00 | 0.04 | 0.04 | 71 | 1005.8 |
| 20260505212553 | 68 | 183 | 0.0 | 3.0 | 0.00 | 0.04 | 0.04 | 71 | 1005.7 |
| 20260505212053 | 68 | 184 | 0.0 | 5.0 | 0.00 | 0.04 | 0.04 | 72 | 1005.8 |
| 20260505211553 | 68 | 170 | 2.0 | 5.0 | 0.00 | 0.04 | 0.04 | 72 | 1005.8 |
| 20260505211052 | 67 | 292 | 1.0 | 4.0 | 0.00 | 0.04 | 0.04 | 73 | 1005.8 |
| 20260505210555 | 67 | 132 | 0.0 | 4.0 | 0.00 | 0.04 | 0.04 | 74 | 1005.7 |
| 20260505210051 | 67 | 134 | 1.0 | 4.0 | 0.00 | 0.04 | 0.04 | 74 | 1005.7 |
| 20260505205552 | 67 | 218 | 1.0 | 5.0 | 0.00 | 0.04 | 0.04 | 76 | 1005.8 |
| 20260505205055 | 66 | 237 | 2.0 | 5.0 | 0.00 | 0.04 | 0.04 | 77 | 1005.9 |
| 20260505204551 | 66 | 171 | 0.0 | 7.0 | 0.00 | 0.04 | 0.04 | 77 | 1006.0 |
| 20260505204051 | 66 | 157 | 1.0 | 7.0 | 0.02 | 0.04 | 0.04 | 77 | 1006.0 |
| 20260505203553 | 66 | 203 | 0.0 | 4.0 | 0.02 | 0.04 | 0.04 | 77 | 1006.2 |
| 20260505203055 | 66 | 192 | 0.0 | 3.0 | 0.02 | 0.04 | 0.04 | 76 | 1006.3 |
| 20260505202548 | 66 | 208 | 1.0 | 4.0 | 0.02 | 0.04 | 0.04 | 75 | 1006.3 |
| 20260505202050 | 66 | 180 | 0.0 | 4.0 | 0.02 | 0.04 | 0.04 | 74 | 1006.3 |
| 20260505201551 | 67 | 244 | 0.0 | 4.0 | 0.02 | 0.04 | 0.04 | 73 | 1006.3 |
| 20260505201049 | 67 | 175 | 0.0 | 3.0 | 0.02 | 0.04 | 0.04 | 72 | 1006.3 |
| 20260505200549 | 67 | 178 | 0.0 | 7.0 | 0.02 | 0.04 | 0.04 | 71 | 1006.4 |
| 20260505200048 | 68 | 161 | 2.0 | 7.0 | 0.02 | 0.04 | 0.04 | 70 | 1006.2 |
| 20260505195548 | 68 | 216 | 0.0 | 17.0 | 0.02 | 0.04 | 0.04 | 68 | 1006.2 |
| 20260505195048 | 69 | 272 | 2.0 | 24.0 | 0.02 | 0.04 | 0.04 | 66 | 1006.5 |
| 20260505194555 | 71 | 230 | 8.0 | 37.0 | 0.02 | 0.04 | 0.04 | 61 | 1006.5 |
| 20260505194047 | 76 | 271 | 15.0 | 34.0 | 0.00 | 0.02 | 0.02 | 50 | 1006.4 |
| 20260505193546 | 78 | 215 | 10.0 | 23.0 | 0.00 | 0.02 | 0.02 | 36 | 1005.1 |
| 20260505193103 | 79 | 262 | 3.0 | 16.0 | 0.00 | 0.02 | 0.02 | 34 | 1004.5 |
| 20260505192546 | 79 | 215 | 5.0 | 16.0 | 0.00 | 0.02 | 0.02 | 33 | 1004.2 |
| 20260505192047 | 80 | 220 | 7.0 | 16.0 | 0.00 | 0.02 | 0.02 | 32 | 1004.1 |
| 20260505191546 | 80 | 259 | 5.0 | 24.0 | 0.00 | 0.02 | 0.02 | 33 | 1003.9 |
| 20260505191045 | 81 | 150 | 8.0 | 28.0 | 0.00 | 0.02 | 0.02 | 32 | 1003.9 |
| 20260505190545 | 81 | 254 | 15.0 | 28.0 | 0.00 | 0.02 | 0.02 | 32 | 1003.8 |
| 20260505190046 | 80 | 232 | 4.0 | 18.0 | 0.00 | 0.02 | 0.02 | 37 | 1003.9 |
| 20260505185545 | 79 | 250 | 7.0 | 17.0 | 0.00 | 0.02 | 0.02 | 38 | 1004.0 |
| 20260505185041 | 79 | 200 | 6.0 | 15.0 | 0.00 | 0.02 | 0.02 | 39 | 1004.1 |
| 20260505184540 | 78 | 230 | 5.0 | 15.0 | 0.00 | 0.02 | 0.02 | 40 | 1004.4 |
| 20260505184043 | 78 | 261 | 6.0 | 19.0 | 0.00 | 0.02 | 0.02 | 38 | 1004.6 |
| 20260505183539 | 78 | 350 | 7.0 | 19.0 | 0.00 | 0.02 | 0.02 | 40 | 1004.6 |
| 20260505183039 | 77 | 293 | 8.0 | 16.0 | 0.00 | 0.02 | 0.02 | 42 | 1004.7 |
| 20260505182538 | 77 | 263 | 3.0 | 16.0 | 0.00 | 0.02 | 0.02 | 45 | 1004.7 |
| 20260505182038 | 76 | 261 | 6.0 | 12.0 | 0.00 | 0.02 | 0.02 | 50 | 1004.9 |
| 20260505181536 | 76 | 211 | 3.0 | 9.0 | 0.00 | 0.02 | 0.02 | 52 | 1004.9 |
| 20260505181036 | 76 | 251 | 4.0 | 9.0 | 0.00 | 0.02 | 0.02 | 53 | 1005.2 |
| 20260505180534 | 76 | 217 | 2.0 | 9.0 | 0.00 | 0.02 | 0.02 | 54 | 1005.4 |
| 20260505180039 | 76 | 181 | 5.0 | 12.0 | 0.00 | 0.02 | 0.02 | 54 | 1005.5 |
| 20260505175534 | 76 | 218 | 4.0 | 18.0 | 0.00 | 0.02 | 0.02 | 51 | 1005.8 |
| 20260505175033 | 77 | 256 | 9.0 | 19.0 | 0.00 | 0.02 | 0.02 | 45 | 1005.8 |
| 20260505174533 | 77 | 228 | 7.0 | 15.0 | 0.00 | 0.02 | 0.02 | 44 | 1005.7 |
| 20260505174033 | 77 | 247 | 5.0 | 15.0 | 0.00 | 0.02 | 0.02 | 45 | 1005.7 |
| 20260505173533 | 76 | 214 | 9.0 | 18.0 | 0.00 | 0.02 | 0.02 | 45 | 1005.7 |
| 20260505173131 | 76 | 223 | 9.0 | 18.0 | 0.00 | 0.02 | 0.02 | 44 | 1005.6 |
| 20260505172532 | 77 | 230 | 7.0 | 16.0 | 0.00 | 0.02 | 0.02 | 44 | 1005.8 |
| 20260505172031 | 77 | 217 | 4.0 | 16.0 | 0.00 | 0.02 | 0.02 | 44 | 1005.8 |
| 20260505171531 | 77 | 235 | 3.0 | 13.0 | 0.00 | 0.02 | 0.02 | 43 | 1005.8 |
| 20260505171032 | 77 | 219 | 5.0 | 20.0 | 0.00 | 0.02 | 0.02 | 44 | 1005.8 |
| 20260505170532 | 78 | 278 | 8.0 | 20.0 | 0.00 | 0.02 | 0.02 | 43 | 1005.5 |
| 20260505170034 | 78 | 237 | 6.0 | 14.0 | 0.00 | 0.02 | 0.02 | 43 | 1005.5 |
| 20260505165531 | 78 | 292 | 5.0 | 19.0 | 0.00 | 0.02 | 0.02 | 43 | 1005.2 |
| 20260505165031 | 78 | 259 | 7.0 | 19.0 | 0.00 | 0.02 | 0.02 | 42 | 1005.4 |
| 20260505164537 | 78 | 13 | 4.0 | 18.0 | 0.00 | 0.02 | 0.02 | 43 | 1005.2 |
| 20260505164031 | 78 | 194 | 7.0 | 14.0 | 0.00 | 0.02 | 0.02 | 43 | 1005.4 |
| 20260505163530 | 78 | 130 | 6.0 | 12.0 | 0.00 | 0.02 | 0.02 | 43 | 1005.4 |
| 20260505163036 | 78 | 209 | 7.0 | 12.0 | 0.00 | 0.02 | 0.02 | 42 | 1005.6 |
| 20260505162528 | 78 | 292 | 3.0 | 16.0 | 0.00 | 0.02 | 0.02 | 41 | 1005.6 |
| 20260505162030 | 78 | 224 | 5.0 | 16.0 | 0.00 | 0.02 | 0.02 | 42 | 1005.8 |
| 20260505161527 | 78 | 228 | 5.0 | 20.0 | 0.00 | 0.02 | 0.02 | 42 | 1005.9 |
| 20260505161027 | 78 | 152 | 8.0 | 20.0 | 0.00 | 0.02 | 0.02 | 41 | 1005.9 |
| 20260505160529 | 78 | 227 | 7.0 | 18.0 | 0.00 | 0.02 | 0.02 | 41 | 1005.9 |
| 20260505153029 | 78 | 203 | 6.0 | 18.0 | 0.00 | 0.02 | 0.02 | 42 | 1006.0 |
| 20260505152522 | 78 | 331 | 6.0 | 19.0 | 0.00 | 0.02 | 0.02 | 41 | 1006.0 |
| 20260505152029 | 78 | 229 | 7.0 | 19.0 | 0.00 | 0.02 | 0.02 | 42 | 1006.0 |
| 20260505151522 | 78 | 281 | 6.0 | 14.0 | 0.00 | 0.02 | 0.02 | 43 | 1006.0 |
| 20260505151020 | 77 | 275 | 5.0 | 14.0 | 0.00 | 0.02 | 0.02 | 45 | 1006.0 |
| 20260505150519 | 77 | 234 | 5.0 | 12.0 | 0.00 | 0.02 | 0.02 | 44 | 1006.1 |
| 20260505140508 | 73 | 304 | 4.0 | 21.0 | 0.00 | 0.02 | 0.02 | 48 | 1006.2 |
| 20260505124552 | 63 | 279 | 2.0 | 6.0 | 0.01 | 0.02 | 0.02 | 69 | 1007.5 |
| 20260505124050 | 63 | 347 | 1.0 | 6.0 | 0.01 | 0.02 | 0.02 | 70 | 1007.4 |
| 20260505123555 | 63 | 314 | 2.0 | 8.0 | 0.01 | 0.02 | 0.02 | 71 | 1007.3 |
| 20260505123058 | 62 | 166 | 1.0 | 8.0 | 0.01 | 0.02 | 0.02 | 69 | 1007.3 |
| 20260505122549 | 62 | 11 | 1.0 | 5.0 | 0.01 | 0.02 | 0.02 | 71 | 1007.1 |
| 20260505122050 | 62 | 336 | 1.0 | 9.0 | 0.01 | 0.02 | 0.02 | 71 | 1007.2 |
| 20260505121549 | 61 | 252 | 2.0 | 9.0 | 0.02 | 0.02 | 0.02 | 72 | 1007.2 |
| 20260505121052 | 61 | 20 | 2.0 | 5.0 | 0.01 | 0.01 | 0.01 | 74 | 1007.1 |
| 20260505120548 | 61 | 11 | 0.0 | 4.0 | 0.01 | 0.01 | 0.01 | 74 | 1007.2 |
| 20260505120055 | 61 | 287 | 0.0 | 4.0 | 0.01 | 0.01 | 0.01 | 71 | 1007.3 |
| 20260505115547 | 61 | 328 | 1.0 | 4.0 | 0.01 | 0.01 | 0.01 | 72 | 1007.2 |
| 20260505115047 | 61 | 289 | 1.0 | 6.0 | 0.01 | 0.01 | 0.01 | 71 | 1006.9 |
| 20260505114550 | 61 | 252 | 1.0 | 9.0 | 0.01 | 0.01 | 0.01 | 71 | 1007.0 |
| 20260505114046 | 61 | 229 | 4.0 | 9.0 | 0.01 | 0.01 | 0.01 | 71 | 1006.9 |
| 20260505113549 | 62 | 207 | 2.0 | 27.0 | 0.01 | 0.01 | 0.01 | 70 | 1006.7 |
| 20260505113051 | 62 | 123 | 7.0 | 27.0 | 0.01 | 0.01 | 0.01 | 69 | 1006.9 |
| 20260505112546 | 62 | 223 | 0.0 | 6.0 | 0.01 | 0.01 | 0.01 | 69 | 1007.7 |
| 20260505112045 | 62 | 165 | 1.0 | 11.0 | 0.01 | 0.01 | 0.01 | 68 | 1007.5 |
| 20260505111546 | 61 | 191 | 5.0 | 11.0 | 0.00 | 0.00 | 0.00 | 67 | 1007.7 |
| 20260505111043 | 61 | 248 | 2.0 | 7.0 | 0.00 | 0.00 | 0.00 | 66 | 1007.6 |
| 20260505110543 | 61 | 259 | 0.0 | 7.0 | 0.00 | 0.00 | 0.00 | 65 | 1007.5 |
| 20260505102039 | 59 | 313 | 0.0 | 5.0 | 0.00 | 0.00 | 0.00 | 69 | 1007.1 |
| 20260505101539 | 58 | 320 | 1.0 | 8.0 | 0.00 | 0.00 | 0.00 | 69 | 1007.0 |
| 20260505101036 | 58 | 254 | 1.0 | 8.0 | 0.00 | 0.00 | 0.00 | 70 | 1006.8 |
| 20260505100536 | 57 | 262 | 1.0 | 7.0 | 0.00 | 0.00 | 0.00 | 71 | 1006.8 |
| 20260505100038 | 57 | 229 | 1.0 | 9.0 | 0.00 | 0.00 | 0.00 | 70 | 1006.8 |
| 20260505095536 | 56 | 109 | 1.0 | 9.0 | 0.00 | 0.00 | 0.00 | 71 | 1006.8 |
| 20260505095035 | 56 | 273 | 2.0 | 6.0 | 0.00 | 0.00 | 0.00 | 70 | 1006.7 |
| 20260505094535 | 56 | 11 | 0.0 | 5.0 | 0.00 | 0.00 | 0.00 | 70 | 1006.5 |
| 20260505094034 | 56 | 17 | 1.0 | 4.0 | 0.00 | 0.00 | 0.00 | 69 | 1006.5 |
| 20260505093534 | 56 | 65 | 0.0 | 3.0 | 0.00 | 0.00 | 0.00 | 69 | 1006.5 |
| 20260505093033 | 56 | 117 | 0.0 | 4.0 | 0.00 | 0.00 | 0.00 | 69 | 1006.5 |
| 20260505092533 | 56 | 117 | 1.0 | 4.0 | 0.00 | 0.00 | 0.00 | 68 | 1006.5 |
| 20260505092032 | 56 | 53 | 0.0 | 4.0 | 0.00 | 0.00 | 0.00 | 68 | 1006.5 |
| 20260505091532 | 56 | 53 | 1.0 | 4.0 | 0.00 | 0.00 | 0.00 | 68 | 1006.4 |
| 20260505091033 | 57 | 44 | 0.0 | 1.0 | 0.00 | 0.00 | 0.00 | 67 | 1006.4 |
| 20260505090530 | 57 | 44 | 0.0 | 4.0 | 0.00 | 0.00 | 0.00 | 67 | 1006.4 |
| 20260505090029 | 57 | 44 | 1.0 | 4.0 | 0.00 | 0.00 | 0.00 | 66 | 1006.3 |
| 20260505085529 | 57 | 58 | 0.0 | 3.0 | 0.00 | 0.00 | 0.00 | 66 | 1006.4 |
| 20260505085028 | 57 | 105 | 0.0 | 0.0 | 0.00 | 0.00 | 0.00 | 65 | 1006.4 |
| 20260505084542 | 58 | 132 | 0.0 | 0.0 | 0.00 | 0.00 | 0.00 | 64 | 1006.4 |
| 20260505084025 | 58 | 132 | 0.0 | 0.0 | 0.00 | 0.00 | 0.00 | 64 | 1006.4 |
| 20260505083529 | 58 | 130 | 0.0 | 0.0 | 0.00 | 0.00 | 0.00 | 64 | 1006.3 |
| 20260505083041 | 58 | 130 | 0.0 | 0.0 | 0.00 | 0.00 | 0.00 | 63 | 1006.3 |
| 20260505082523 | 59 | 129 | 0.0 | 0.0 | 0.00 | 0.00 | 0.00 | 62 | 1006.3 |
| 20260505082022 | 59 | 107 | 0.0 | 0.0 | 0.00 | 0.00 | 0.00 | 62 | 1006.3 |
| 20260505081525 | 59 | 107 | 0.0 | 0.0 | 0.00 | 0.00 | 0.00 | 61 | 1006.4 |
| 20260505081020 | 60 | 107 | 0.0 | 0.0 | 0.00 | 0.00 | 0.00 | 61 | 1006.4 |
| 20260505080519 | 60 | 105 | 0.0 | 0.0 | 0.00 | 0.00 | 0.00 | 61 | 1006.4 |
| 20260505080032 | 60 | 105 | 0.0 | 0.0 | 0.00 | 0.00 | 0.00 | 60 | 1006.5 |
| 20260505075518 | 61 | 105 | 0.0 | 0.0 | 0.00 | 0.00 | 0.00 | 59 | 1006.5 |
| 20260505075016 | 61 | 105 | 0.0 | 3.0 | 0.00 | 0.00 | 0.00 | 59 | 1006.5 |
| 20260505074518 | 61 | 106 | 1.0 | 3.0 | 0.00 | 0.00 | 0.00 | 58 | 1006.5 |
| 20260505074014 | 62 | 114 | 0.0 | 3.0 | 0.00 | 0.00 | 0.00 | 57 | 1006.5 |
| 20260505073514 | 62 | 82 | 1.0 | 2.0 | 0.00 | 0.00 | 0.00 | 56 | 1006.5 |
| 20260505073023 | 62 | 81 | 0.0 | 3.0 | 0.00 | 0.00 | 0.00 | 56 | 1006.4 |
| 20260505072510 | 63 | 82 | 0.0 | 3.0 | 0.00 | 0.00 | 0.00 | 55 | 1006.4 |
| 20260505072010 | 63 | 5 | 0.0 | 3.0 | 0.00 | 0.00 | 0.00 | 54 | 1006.5 |
| 20260505071509 | 63 | 201 | 1.0 | 5.0 | 0.00 | 0.00 | 0.00 | 54 | 1006.5 |
| 20260505071009 | 63 | 355 | 0.0 | 0.0 | 0.00 | 0.00 | 0.00 | 53 | 1006.5 |
| 20260505070508 | 64 | 350 | 0.0 | 1.0 | 0.00 | 0.00 | 0.00 | 54 | 1006.5 |
| 20260505070007 | 64 | 333 | 0.0 | 5.0 | 0.00 | 0.00 | 0.00 | 52 | 1006.5 |
| 20260505065507 | 64 | 242 | 2.0 | 6.0 | 0.00 | 0.00 | 0.00 | 51 | 1006.6 |
| 20260505065006 | 64 | 321 | 1.0 | 6.0 | 0.00 | 0.00 | 0.00 | 51 | 1006.6 |
| 20260505064505 | 64 | 350 | 1.0 | 5.0 | 0.00 | 0.00 | 0.00 | 51 | 1006.6 |
| 20260505064005 | 64 | 355 | 2.0 | 9.0 | 0.00 | 0.00 | 0.00 | 51 | 1006.6 |
| 20260505063505 | 64 | 348 | 2.0 | 9.0 | 0.00 | 0.00 | 0.00 | 50 | 1006.6 |
| 20260505063004 | 64 | 270 | 2.0 | 8.0 | 0.00 | 0.00 | 0.00 | 50 | 1006.6 |
| 20260505062504 | 64 | 167 | 1.0 | 7.0 | 0.00 | 0.00 | 0.00 | 50 | 1006.6 |
| 20260505062003 | 64 | 130 | 3.0 | 13.0 | 0.00 | 0.00 | 0.00 | 50 | 1006.6 |
| 20260505061503 | 64 | 123 | 4.0 | 13.0 | 0.00 | 0.00 | 0.00 | 49 | 1006.5 |
| 20260505061003 | 64 | 323 | 2.0 | 10.0 | 0.00 | 0.00 | 0.00 | 50 | 1006.5 |
| 20260505060502 | 64 | 172 | 5.0 | 10.0 | 0.00 | 0.00 | 0.00 | 50 | 1006.5 |
| 20260505060105 | 64 | 218 | 2.0 | 8.0 | 0.00 | 0.00 | 0.00 | 50 | 1006.6 |
| 20260505055502 | 64 | 300 | 3.0 | 7.0 | 0.00 | 0.00 | 0.00 | 49 | 1006.6 |
| 20260505055002 | 64 | 338 | 2.0 | 7.0 | 0.00 | 0.00 | 0.00 | 49 | 1006.7 |
| 20260505054501 | 64 | 231 | 1.0 | 12.0 | 0.00 | 0.00 | 0.00 | 49 | 1006.7 |
| 20260505054003 | 64 | 303 | 4.0 | 12.0 | 0.00 | 0.00 | 0.00 | 49 | 1006.7 |
| 20260505053601 | 64 | 355 | 1.0 | 8.0 | 0.00 | 0.00 | 0.00 | 49 | 1006.6 |
| 20260505053107 | 64 | 111 | 1.0 | 4.0 | 0.00 | 0.00 | 0.00 | 49 | 1006.8 |
| 20260505052600 | 64 | 254 | 2.0 | 7.0 | 0.00 | 0.00 | 0.00 | 49 | 1006.8 |
| 20260505052100 | 64 | 156 | 2.0 | 8.0 | 0.00 | 0.00 | 0.00 | 49 | 1006.8 |
| 20260505051700 | 64 | 195 | 1.0 | 7.0 | 0.00 | 0.00 | 0.00 | 49 | 1006.7 |
| 20260505051058 | 64 | 184 | 1.0 | 8.0 | 0.00 | 0.00 | 0.00 | 49 | 1006.8 |
| 20260505050559 | 64 | 237 | 4.0 | 9.0 | 0.00 | 0.00 | 0.00 | 49 | 1006.8 |
| 20260505041602 | 64 | 298 | 2.0 | 5.0 | 0.00 | 0.00 | 0.00 | 49 | 1006.5 |
| 20260505041054 | 64 | 311 | 1.0 | 9.0 | 0.00 | 0.00 | 0.00 | 49 | 1006.6 |
| 20260505040554 | 64 | 23 | 1.0 | 10.0 | 0.00 | 0.00 | 0.00 | 49 | 1006.6 |
| 20260505040056 | 64 | 24 | 3.0 | 10.0 | 0.00 | 0.00 | 0.00 | 49 | 1006.6 |
| 20260505035551 | 64 | 15 | 1.0 | 9.0 | 0.00 | 0.00 | 0.00 | 49 | 1006.6 |
| 20260505035052 | 64 | 227 | 3.0 | 9.0 | 0.00 | 0.00 | 0.00 | 48 | 1006.6 |
| 20260505034552 | 64 | 138 | 1.0 | 7.0 | 0.00 | 0.00 | 0.00 | 48 | 1006.5 |
| 20260505034052 | 65 | 342 | 1.0 | 4.0 | 0.00 | 0.00 | 0.00 | 48 | 1006.7 |
| 20260505033552 | 65 | 160 | 1.0 | 5.0 | 0.00 | 0.00 | 0.00 | 48 | 1006.6 |
| 20260505033051 | 65 | 255 | 1.0 | 5.0 | 0.00 | 0.00 | 0.00 | 47 | 1006.7 |
| 20260505032551 | 65 | 261 | 1.0 | 5.0 | 0.00 | 0.00 | 0.00 | 47 | 1006.7 |
| 20260505032052 | 65 | 225 | 1.0 | 6.0 | 0.00 | 0.00 | 0.00 | 46 | 1006.7 |
| 20260505031552 | 65 | 101 | 1.0 | 5.0 | 0.00 | 0.00 | 0.00 | 46 | 1006.7 |
| 20260505031050 | 66 | 144 | 2.0 | 5.0 | 0.00 | 0.00 | 0.00 | 46 | 1006.7 |
| 20260505030551 | 66 | 290 | 1.0 | 6.0 | 0.00 | 0.00 | 0.00 | 46 | 1006.6 |
| 20260505030109 | 66 | 182 | 2.0 | 5.0 | 0.00 | 0.00 | 0.00 | 45 | 1006.7 |
| 20260505025550 | 66 | 333 | 1.0 | 5.0 | 0.00 | 0.00 | 0.00 | 45 | 1006.7 |
| 20260505025050 | 66 | 312 | 2.0 | 6.0 | 0.00 | 0.00 | 0.00 | 45 | 1006.8 |
| 20260505024553 | 66 | 138 | 0.0 | 10.0 | 0.00 | 0.00 | 0.00 | 44 | 1006.8 |
| 20260505024051 | 66 | 243 | 1.0 | 10.0 | 0.00 | 0.00 | 0.00 | 44 | 1006.8 |
| 20260505023549 | 66 | 201 | 1.0 | 10.0 | 0.00 | 0.00 | 0.00 | 44 | 1006.9 |
| 20260505023049 | 66 | 102 | 3.0 | 10.0 | 0.00 | 0.00 | 0.00 | 44 | 1006.9 |
| 20260505022549 | 66 | 231 | 1.0 | 9.0 | 0.00 | 0.00 | 0.00 | 44 | 1006.9 |
| 20260505022150 | 66 | 239 | 4.0 | 11.0 | 0.00 | 0.00 | 0.00 | 44 | 1006.8 |
| 20260505021550 | 66 | 82 | 3.0 | 11.0 | 0.00 | 0.00 | 0.00 | 44 | 1007.0 |
| 20260505021048 | 66 | 249 | 1.0 | 7.0 | 0.00 | 0.00 | 0.00 | 44 | 1007.0 |
| 20260505020548 | 66 | 327 | 2.0 | 7.0 | 0.00 | 0.00 | 0.00 | 43 | 1006.9 |
| 20260505020048 | 66 | 214 | 2.0 | 8.0 | 0.00 | 0.00 | 0.00 | 43 | 1006.9 |
| 20260505015548 | 66 | 196 | 2.0 | 5.0 | 0.00 | 0.00 | 0.00 | 43 | 1006.9 |
| 20260505015048 | 66 | 85 | 0.0 | 7.0 | 0.00 | 0.00 | 0.00 | 44 | 1006.9 |
| 20260505014603 | 66 | 110 | 3.0 | 7.0 | 0.00 | 0.00 | 0.00 | 43 | 1006.9 |
| 20260505014046 | 66 | 273 | 1.0 | 8.0 | 0.00 | 0.00 | 0.00 | 43 | 1006.8 |
| 20260505013548 | 67 | 309 | 1.0 | 4.0 | 0.00 | 0.00 | 0.00 | 43 | 1006.8 |
| 20260505013051 | 67 | 267 | 0.0 | 4.0 | 0.00 | 0.00 | 0.00 | 44 | 1006.7 |
| 20260505012546 | 67 | 259 | 1.0 | 6.0 | 0.00 | 0.00 | 0.00 | 43 | 1006.7 |
| 20260505012046 | 67 | 148 | 2.0 | 10.0 | 0.00 | 0.00 | 0.00 | 42 | 1006.6 |
| 20260505011546 | 67 | 250 | 4.0 | 10.0 | 0.00 | 0.00 | 0.00 | 41 | 1006.6 |
| 20260505011049 | 68 | 161 | 1.0 | 9.0 | 0.00 | 0.00 | 0.00 | 42 | 1006.5 |
| 20260505010546 | 68 | 182 | 0.0 | 9.0 | 0.00 | 0.00 | 0.00 | 41 | 1006.5 |
| 20260505010054 | 68 | 111 | 2.0 | 9.0 | 0.00 | 0.00 | 0.00 | 41 | 1006.5 |
| 20260505005549 | 68 | 291 | 2.0 | 4.0 | 0.00 | 0.00 | 0.00 | 40 | 1006.4 |
| 20260505005045 | 68 | 167 | 0.0 | 5.0 | 0.00 | 0.00 | 0.00 | 40 | 1006.4 |
| 20260505004550 | 68 | 5 | 1.0 | 9.0 | 0.00 | 0.00 | 0.00 | 40 | 1006.4 |
| 20260505004043 | 69 | 302 | 1.0 | 5.0 | 0.00 | 0.00 | 0.00 | 39 | 1006.4 |
| 20260505003544 | 69 | 227 | 0.0 | 8.0 | 0.00 | 0.00 | 0.00 | 39 | 1006.4 |
| 20260505003055 | 69 | 314 | 0.0 | 8.0 | 0.00 | 0.00 | 0.00 | 39 | 1006.4 |
| 20260505002544 | 69 | 201 | 2.0 | 5.0 | 0.00 | 0.00 | 0.00 | 39 | 1006.3 |
| 20260505002044 | 70 | 321 | 1.0 | 8.0 | 0.00 | 0.00 | 0.00 | 39 | 1006.2 |
| 20260505001545 | 70 | 240 | 2.0 | 9.0 | 0.00 | 0.00 | 0.00 | 38 | 1006.1 |
| 20260505001043 | 70 | 229 | 3.0 | 9.0 | 0.00 | 0.00 | 0.00 | 37 | 1006.1 |
| 20260505000543 | 70 | 252 | 2.0 | 5.0 | 0.00 | 0.00 | 0.00 | 38 | 1006.1 |
| 20260505000041 | 70 | 93 | 2.0 | 9.0 | 0.00 | 0.00 | 0.00 | 37 | 1006.1 |
| 20260504235545 | 71 | 215 | 3.0 | 9.0 | 0.00 | 0.00 | 0.00 | 37 | 1006.0 |
| 20260504235142 | 71 | 187 | 1.0 | 10.0 | 0.00 | 0.00 | 0.00 | 36 | 1006.1 |
| 20260504234543 | 71 | 200 | 1.0 | 7.0 | 0.00 | 0.00 | 0.00 | 36 | 1006.0 |
| 20260504234040 | 72 | 248 | 1.0 | 9.0 | 0.00 | 0.00 | 0.00 | 36 | 1006.0 |
| 20260504233541 | 72 | 173 | 4.0 | 9.0 | 0.00 | 0.00 | 0.00 | 35 | 1005.9 |
| 20260504233042 | 72 | 255 | 3.0 | 10.0 | 0.00 | 0.00 | 0.00 | 34 | 1005.8 |
| 20260504232640 | 73 | 263 | 1.0 | 9.0 | 0.00 | 0.00 | 0.00 | 34 | 1005.8 |
| 20260504232039 | 73 | 150 | 3.0 | 9.0 | 0.00 | 0.00 | 0.00 | 33 | 1005.8 |
| 20260504231539 | 73 | 261 | 2.0 | 12.0 | 0.00 | 0.00 | 0.00 | 33 | 1005.8 |
| 20260504231039 | 74 | 237 | 3.0 | 12.0 | 0.00 | 0.00 | 0.00 | 33 | 1005.8 |
| 20260504230538 | 74 | 281 | 2.0 | 7.0 | 0.00 | 0.00 | 0.00 | 33 | 1005.9 |
| 20260504230040 | 74 | 13 | 2.0 | 11.0 | 0.00 | 0.00 | 0.00 | 33 | 1005.7 |
| 20260504225538 | 74 | 180 | 4.0 | 10.0 | 0.00 | 0.00 | 0.00 | 32 | 1005.8 |
| 20260504225037 | 74 | 195 | 2.0 | 7.0 | 0.00 | 0.00 | 0.00 | 32 | 1005.7 |
| 20260504224537 | 75 | 202 | 0.0 | 15.0 | 0.00 | 0.00 | 0.00 | 32 | 1005.7 |
| 20260504224138 | 75 | 228 | 3.0 | 15.0 | 0.00 | 0.00 | 0.00 | 31 | 1005.8 |
| 20260504223537 | 75 | 146 | 1.0 | 7.0 | 0.00 | 0.00 | 0.00 | 31 | 1005.8 |
| 20260504223054 | 75 | 228 | 3.0 | 12.0 | 0.00 | 0.00 | 0.00 | 32 | 1005.7 |
| 20260504222535 | 75 | 231 | 3.0 | 12.0 | 0.00 | 0.00 | 0.00 | 31 | 1005.8 |
| 20260504222035 | 75 | 162 | 3.0 | 11.0 | 0.00 | 0.00 | 0.00 | 31 | 1005.8 |
| 20260504221535 | 76 | 313 | 1.0 | 8.0 | 0.00 | 0.00 | 0.00 | 32 | 1005.8 |
| 20260504221035 | 76 | 188 | 3.0 | 10.0 | 0.00 | 0.00 | 0.00 | 32 | 1005.8 |
| 20260504220534 | 76 | 112 | 3.0 | 13.0 | 0.00 | 0.00 | 0.00 | 32 | 1005.9 |